Wind_Speed
21 23 23 20 19 20 22 22 21 20 20 18 20 22 17 16 18 21 18 22 28 32 34 35 37 32 38 40 38 40 37 40
29 29 27 24 22 22 24 24 22 25 26 26 25 23 20 19 20 21 21 26 29 31 32 33 35 38 37 37 36 36 37 38
34 32 30 25 26 26 25 25 26 30 29 27 25 24 22 20 20 21 25 28 33 36 37 38 40 41 42 41 41 41 40 37
25 26 23 23 22 23 24 26 28 30 27 26 25 24 21 20 22 24 30 36 41 42 43 42 40 43 45 46 45 43 38 38
21 19 22 24 23 22 25 28 29 28 26 26 25 24 23 24 26 30 36 46 47 50 45 41 40 40 41 40 39 38 36 37
22 20 20 21 22 22 23 24 26 26 26 27 26 26 26 28 31 35 47 47 50 51 45 41 40 39 38 38 39 38 36 37
22 22 21 22 24 25 25 24 24 25 27 28 27 28 31 33 37 47 49 50 54 49 46 43 38 36 34 32 33 34 36 36
17 17 19 22 25 26 25 25 26 28 28 29 31 34 37 42 47 52 49 54 46 43 43 44 40 32 30 29 29 30 32 35
15 17 19 22 25 26 26 27 28 28 30 32 35 38 43 46 47 49 54 44 39 39 40 40 40 37 31 30 28 28 30 30
18 23 23 23 25 26 28 28 29 30 33 36 41 44 46 44 47 50 41 38 36 37 36 36 37 35 32 32 33 32 33 32
24 24 24 26 27 28 29 32 32 37 42 43 44 43 43 46 47 40 39 41 41 38 36 37 38 37 35 34 35 35 37 37
24 24 25 27 30 34 34 35 38 40 41 40 41 43 44 43 40 40 42 43 44 40 38 37 37 36 36 35 37 38 38 40
25 26 29 33 35 36 36 38 41 40 39 40 42 40 41 39 41 44 45 47 44 39 34 36 35 35 37 37 37 38 38 38
29 32 34 35 36 37 39 41 40 40 43 39 42 44 39 42 46 47 49 46 40 40 37 36 36 34 34 36 36 38 38 34
35 36 35 36 36 38 40 40 41 40 39 47 43 40 43 47 49 51 48 44 42 39 36 34 35 35 32 30 31 33 30 27
36 38 36 38 38 40 40 41 40 45 44 40 40 43 49 53 55 55 51 47 39 35 36 32 31 33 27 24 25 24 24 26
38 38 38 40 43 42 43 43 41 42 41 42 44 48 52 55 54 51 48 43 37 35 33 32 30 29 24 23 26 24 22 23
34 42 46 46 43 44 41 42 42 40 41 44 49 53 57 55 53 50 48 42 39 38 35 34 29 28 27 23 24 26 22 22
32 38 40 42 42 42 41 39 38 40 43 49 53 56 53 50 48 48 44 39 35 34 33 37 35 30 31 28 26 28 20 18
Wind_Direction
265 265 276 279 281 274 270 275 271 276 278 286 302 306 288 279 284 283 285 302 306 304 301 296 294 281 282 282 282 282 266 275
272 271 278 271 272 273 266 270 268 279 284 284 283 289 283 282 290 290 300 307 304 300 295 291 289 289 285 282 279 279 280 272
278 276 279 271 266 268 264 265 272 270 270 272 279 282 277 274 284 297 308 308 312 306 301 293 286 282 280 278 278 278 276 270
277 274 268 270 270 269 263 257 258 261 264 266 267 269 269 276 290 302 311 313 313 307 303 295 287 282 280 277 277 274 274 275
294 287 278 278 277 270 262 252 254 256 259 264 264 265 271 284 295 302 306 315 312 312 304 296 288 286 283 281 277 272 266 269
289 286 279 276 276 269 260 252 250 258 268 269 268 273 280 291 297 303 314 315 312 309 301 296 291 288 285 282 279 275 272 264
283 281 284 285 283 278 271 264 269 274 273 271 272 277 286 295 302 309 312 313 312 306 302 301 296 291 288 285 281 279 275 269
282 290 292 289 283 278 275 275 279 278 272 276 281 286 291 298 304 306 307 311 304 302 300 297 298 299 293 284 279 275 273 271
290 288 285 284 276 274 275 281 287 285 287 286 286 289 294 297 300 302 309 303 303 301 295 291 290 293 291 285 279 275 275 275
299 296 284 277 272 276 283 287 290 289 287 286 293 293 291 294 301 307 301 308 311 304 296 294 292 290 286 280 279 280 282 284
297 290 282 276 276 280 285 288 290 294 291 288 286 286 290 298 300 300 310 318 316 305 297 292 287 286 283 281 279 281 285 291
290 276 269 270 277 283 285 283 286 282 278 279 282 290 299 297 300 309 312 317 314 307 296 285 284 284 281 280 279 280 285 291
279 268 268 272 274 276 279 281 278 276 279 287 295 298 295 298 304 309 310 311 308 302 291 283 286 283 277 274 276 281 284 290
274 270 273 274 273 276 278 275 276 284 288 292 296 295 293 300 305 308 307 304 298 299 287 281 284 286 279 275 278 282 285 286
277 272 271 270 275 277 273 275 284 286 288 295 292 294 299 302 307 310 306 301 294 288 286 284 284 287 289 286 277 277 285 282
275 273 268 272 274 271 273 283 285 288 286 284 288 293 298 304 310 310 305 301 293 283 282 282 279 286 281 287 278 276 270 271
272 267 270 272 272 271 277 284 279 278 279 286 293 298 305 311 309 306 302 295 284 281 277 280 277 277 276 281 284 287 275 275
260 262 267 271 267 272 277 277 274 276 281 289 296 305 309 308 306 304 298 290 278 277 279 272 272 274 272 283 280 289 277 281
269 263 260 261 266 273 271 270 274 279 288 298 307 307 306 306 304 300 296 296 282 285 276 266 267 272 271 274 276 283 276 272
Height
3124 3124 3126 3128 3128 3128 3129 3129 3128 3128 3128 3128 3127 3127 3127 3127 3126 3126 3125 3125 3124 3122 3120 3119 3116 3115 3115 3112 3111 3110 3108 3107
3118 3119 3120 3121 3122 3122 3123 3123 3123 3123 3123 3122 3122 3120 3119 3120 3120 3120 3119 3118 3117 3115 3114 3112 3110 3107 3104 3104 3103 3101 3100 3100
3108 3110 3113 3114 3114 3116 3116 3117 3117 3117 3116 3116 3115 3114 3114 3114 3114 3113 3111 3110 3108 3107 3105 3103 3100 3097 3095 3094 3093 3091 3089 3090
3102 3103 3105 3106 3107 3108 3110 3110 3110 3110 3111 3110 3109 3108 3108 3108 3108 3107 3104 3102 3100 3097 3093 3090 3088 3086 3085 3084 3082 3080 3079 3078
3095 3096 3097 3099 3099 3101 3103 3104 3105 3105 3106 3106 3104 3103 3103 3102 3101 3099 3096 3092 3089 3085 3081 3079 3078 3076 3074 3071 3071 3070 3070 3069
3090 3089 3090 3091 3093 3096 3098 3099 3100 3101 3101 3099 3098 3098 3097 3096 3094 3092 3088 3084 3080 3075 3071 3069 3065 3064 3063 3062 3062 3061 3060 3060
3085 3085 3086 3087 3088 3090 3092 3095 3096 3096 3096 3095 3094 3093 3091 3089 3087 3084 3081 3078 3072 3065 3060 3057 3056 3055 3054 3053 3052 3051 3051 3050
3081 3082 3083 3085 3086 3087 3089 3091 3092 3091 3090 3090 3088 3087 3085 3083 3080 3076 3073 3069 3064 3056 3051 3049 3046 3045 3044 3043 3044 3042 3041 3041
3079 3080 3080 3081 3083 3084 3085 3087 3087 3086 3086 3085 3083 3082 3079 3074 3070 3066 3063 3059 3054 3050 3046 3041 3039 3037 3036 3035 3034 3035 3033 3031
3073 3074 3075 3076 3077 3078 3080 3080 3080 3080 3079 3077 3074 3070 3067 3064 3061 3057 3054 3049 3044 3040 3035 3033 3030 3028 3026 3024 3024 3023 3022 3021
3066 3067 3069 3070 3071 3071 3071 3071 3071 3070 3068 3065 3063 3060 3058 3055 3052 3049 3044 3039 3036 3030 3027 3024 3021 3018 3017 3015 3013 3012 3010 3010
3059 3059 3060 3062 3063 3063 3063 3062 3060 3059 3057 3055 3053 3051 3048 3044 3040 3035 3031 3027 3023 3020 3018 3015 3013 3010 3008 3006 3004 3002 3000 2998
3056 3057 3055 3054 3054 3054 3055 3053 3052 3049 3047 3046 3042 3039 3036 3032 3030 3026 3021 3017 3012 3009 3006 3004 3002 2999 2998 2996 2995 2993 2990 2988
3048 3048 3048 3046 3046 3046 3044 3043 3042 3041 3038 3033 3031 3028 3025 3022 3019 3015 3011 3007 3003 2998 2994 2992 2990 2989 2987 2986 2986 2985 2982 2980
3037 3037 3038 3037 3036 3036 3036 3035 3035 3030 3027 3026 3023 3020 3016 3013 3010 3006 2999 2993 2990 2987 2985 2983 2981 2979 2979 2978 2977 2975 2973 2972
3030 3030 3030 3028 3027 3027 3027 3027 3023 3022 3019 3017 3014 3011 3007 3003 2998 2993 2989 2985 2981 2978 2976 2975 2973 2971 2971 2970 2968 2967 2966 2965
3022 3023 3024 3022 3021 3018 3017 3015 3013 3009 3009 3008 3005 3001 2995 2990 2984 2980 2976 2973 2971 2969 2967 2966 2965 2964 2964 2962 2961 2960 2959 2958
3008 3009 3010 3011 3011 3009 3006 3003 3002 2999 2998 2997 2994 2989 2983 2978 2974 2969 2965 2963 2960 2959 2958 2957 2957 2957 2957 2956 2954 2953 2951 2951
2999 3001 3000 2999 3000 3001 2999 2996 2994 2992 2990 2987 2983 2977 2972 2968 2964 2958 2953 2949 2950 2949 2948 2947 2948 2949 2949 2949 2947 2946 2946 2946